Location: Centerville
(32.8776°N, 96.6203°W)
Time: 03:11:43
(UTC+00:00)

S3M - Pass Details

Date: 17 June 2021
Orbit: 950 x 1004 km, 83.0° (Epoch: 29 July)

Event Time Altitude Azimuth Distance (km) Brightness Sun altitude
Rises 09:38:50 0° 354° (N) 3,636 7.6 -17.6°
Reaches altitude 10° 09:41:19 10° 354° (N) 2,692 6.8 -17.2°
Maximum altitude 09:47:30 90° 78° (ENE) 970 4.0 -16.3°
Drops below altitude 10° 09:53:43 10° 176° (S) 2,712 6.0 -15.3°
Enters shadow 09:55:23 - 176° (S) 3,345 6.4 -15.0°
